Location: Casilda
(33.0440°S, 61.1680°W)
Time: 16:12:08
(UTC-03:00)

ISS - Pass Details

Date: 11 April 2021
Orbit: 418 x 422 km, 51.6° (Epoch: 17 April)

Event Time Altitude Azimuth Distance (km) Brightness Sun altitude
Exits shadow 05:45:11 22° 177° (S) 990 -1.8 -21.4°
Maximum altitude 05:46:21 27° 143° (SE) 857 -1.8 -21.2°
Drops below altitude 10° 05:49:18 10° 83° (E) 1,515 0.2 -20.6°
Sets 05:51:36 0° 70° (ENE) 2,374 1.3 -20.1°
